GFSFLT2_sfc_wetblb_285.txt.gz
Wetbulb
40.50 42.82 44.09 45.98 45.88 43.44 44.57 43.41 44.48 49.05 51.42 51.73 51.48 50.94 50.11 49.55 49.25 48.58 48.32 48.17 48.08 48.08 48.10 48.20 48.46 48.77 49.30
41.02 42.91 44.43 43.65 41.40 40.85 42.99 43.98 44.14 46.56 49.49 50.84 50.17 49.34 48.56 48.16 47.59 47.02 46.26 45.80 45.21 45.29 45.27 45.28 45.56 46.03 46.62
41.51 40.97 42.74 42.96 42.97 42.29 40.28 41.61 42.65 43.92 47.52 48.86 49.86 48.87 47.54 46.55 45.73 44.88 44.10 43.39 42.97 42.57 42.21 42.34 43.00 43.53 44.27
42.13 41.83 42.53 43.01 43.02 40.91 39.23 39.32 39.99 41.20 44.58 47.92 48.36 47.26 46.55 45.50 43.94 42.70 41.99 41.58 41.09 40.65 40.16 39.72 40.07 40.81 41.69
40.74 40.43 39.91 39.42 39.41 40.16 38.76 36.58 36.69 37.48 39.12 39.95 43.10 42.58 42.68 42.52 41.76 41.47 40.82 40.25 39.76 39.56 39.12 38.41 38.24 38.72 39.38
39.05 38.80 38.11 39.23 40.07 38.82 36.07 35.15 33.61 37.48 36.89 35.57 38.32 37.00 37.86 38.95 41.30 40.39 39.51 38.84 38.34 37.87 37.37 37.13 36.80 37.28 37.66
39.59 39.57 39.10 40.10 39.99 37.33 36.28 35.41 33.91 34.41 35.27 31.72 35.43 35.19 38.61 39.97 40.46 39.24 38.38 37.45 36.83 36.29 35.88 35.88 35.90 36.24 36.95
38.73 39.36 39.85 40.43 38.85 38.09 37.21 32.99 33.50 34.06 35.49 30.64 32.45 32.84 36.33 38.18 39.73 38.40 37.11 35.95 35.44 35.25 35.19 35.36 35.40 35.82 36.34
39.27 39.74 41.03 42.29 41.46 36.86 33.63 33.53 30.68 31.61 32.13 32.03 31.57 31.48 33.11 33.74 36.82 37.69 36.11 34.55 34.57 34.60 34.54 34.19 35.07 34.48 32.73
32.49 32.70 33.28 34.45 40.87 38.67 35.87 33.33 30.21 29.70 31.71 30.56 31.32 31.05 28.43 31.15 31.25 29.83 30.41 33.76 34.07 33.91 33.92 33.11 32.39 27.46 27.29
30.55 30.13 29.65 29.42 30.00 32.26 34.67 34.93 31.87 29.80 32.51 31.89 29.50 27.83 27.49 27.38 28.55 27.17 26.58 25.03 24.49 25.75 32.24 33.49 31.90 28.47 23.97
28.88 27.78 27.11 26.40 26.97 28.16 29.38 29.64 30.57 31.64 31.35 31.51 29.03 27.55 25.54 23.74 24.13 24.56 23.39 22.90 23.31 23.36 24.15 29.93 32.22 31.82 30.71
25.89 24.70 24.67 26.20 27.42 27.51 27.89 27.98 27.31 27.84 28.78 28.43 28.97 26.76 25.63 23.02 20.75 21.18 20.66 22.05 22.36 21.29 22.18 22.49 22.35 23.03 23.33
25.05 25.43 26.79 26.46 25.66 26.92 25.42 25.45 24.69 24.17 25.98 27.28 26.11 25.15 21.58 20.61 19.12 18.38 18.79 14.51 20.71 20.58 20.39 22.15 23.67 23.49 22.95
25.28 25.62 26.02 25.78 25.20 26.15 25.11 23.71 22.73 22.52 22.54 23.71 24.34 24.20 22.23 19.12 15.15 17.16 16.76 16.91 17.70 18.65 19.85 19.02 22.14 23.06 22.96
25.83 25.91 24.96 24.47 24.89 25.31 24.42 22.70 21.75 21.69 21.33 20.50 19.72 17.78 17.42 20.88 24.03 15.69 14.84 15.54 16.98 20.22 20.10 15.10 17.60 21.85 22.98
24.99 25.52 25.51 25.28 25.25 24.00 22.85 22.04 21.03 20.94 19.22 16.93 13.26 10.07 5.23 7.16 16.57 25.66 13.40 14.52 15.34 16.37 18.15 16.85 14.61 19.03 21.68

GFSFLT2_sfc_wetblb_288.txt.gz
Wetbulb
39.47 40.98 42.50 43.32 44.53 44.88 43.61 42.68 42.96 47.96 50.34 51.80 51.82 51.60 51.23 50.60 49.61 49.19 48.59 48.30 48.26 48.21 48.18 48.27 48.55 49.03 49.79
38.83 40.07 42.02 44.41 42.54 40.78 42.31 43.44 41.70 45.81 48.61 50.68 51.23 50.76 49.94 48.99 48.36 47.38 46.65 45.94 45.65 45.45 45.53 45.84 46.26 46.82 47.50
41.88 42.41 42.04 42.43 41.68 41.49 40.41 40.57 41.67 44.19 46.01 48.53 50.01 49.55 48.95 48.02 47.00 45.76 44.50 43.91 43.28 42.55 42.44 42.88 43.49 44.35 45.40
42.18 41.35 41.71 42.86 43.24 41.55 40.17 39.76 40.22 41.16 43.68 46.73 48.17 48.91 47.79 46.51 44.88 43.46 42.52 42.04 41.42 40.88 40.19 40.21 40.70 41.90 43.06
41.28 40.61 40.32 39.87 39.97 40.74 39.82 37.61 37.20 37.98 39.24 39.77 44.33 44.08 43.91 43.35 42.30 42.10 41.42 40.77 40.28 39.67 39.06 38.92 39.25 39.91 40.62
39.72 39.30 39.36 40.02 39.81 39.11 37.27 35.48 33.77 37.78 36.90 35.51 39.81 38.91 39.70 40.42 41.84 41.02 40.31 39.59 38.86 38.18 37.68 37.40 37.79 38.18 38.84
37.96 38.31 38.12 39.34 39.69 38.13 36.80 35.90 34.77 34.66 35.74 31.78 35.26 35.03 39.12 40.92 41.04 39.78 38.95 38.01 37.24 36.60 36.34 36.46 36.82 37.46 37.93
39.44 39.37 39.66 40.24 40.44 39.03 36.85 33.53 33.81 34.74 35.49 30.32 32.21 32.57 37.93 39.18 40.26 38.61 37.52 36.72 36.07 35.82 35.67 36.04 36.32 36.89 37.31
39.83 39.24 39.34 40.98 41.85 37.09 33.62 33.47 30.91 31.63 32.57 32.03 31.55 31.47 33.13 35.41 37.55 37.54 36.31 35.83 35.49 35.30 34.80 35.25 36.17 35.19 33.80
32.92 33.25 33.62 34.02 36.55 39.06 35.98 33.87 30.66 29.62 32.00 31.12 31.55 31.38 28.67 31.28 31.30 31.33 31.20 35.21 34.87 34.72 34.03 34.70 33.78 28.77 29.10
31.06 30.39 30.07 29.91 30.13 31.34 34.62 35.60 32.21 30.81 33.22 32.67 30.25 28.82 28.45 27.62 28.39 28.11 27.22 26.34 25.61 27.17 33.70 33.32 33.17 29.92 26.11
29.56 28.32 27.76 27.09 27.55 28.52 29.89 31.23 32.07 32.16 34.26 32.33 30.49 28.54 27.02 25.67 24.63 24.88 24.42 24.11 24.55 24.32 25.12 31.06 32.46 31.92 30.28
26.70 24.79 24.46 26.89 27.87 28.02 28.55 28.34 27.68 28.40 29.36 29.51 31.38 29.46 29.09 26.43 22.78 22.59 22.26 23.06 23.18 22.15 22.66 23.23 23.25 24.18 24.89
24.67 25.20 25.84 25.88 26.07 27.33 26.12 26.62 25.52 24.69 26.61 28.23 28.58 27.49 23.77 23.23 22.83 21.95 21.21 19.24 21.27 21.14 20.67 21.81 22.96 23.30 22.62
24.45 24.99 25.70 25.67 25.50 26.29 25.35 24.98 23.87 23.47 22.58 24.06 25.01 25.06 24.00 22.71 19.93 20.44 19.47 18.95 18.61 19.18 18.94 18.23 21.86 22.69 22.49
24.34 25.01 23.92 24.54 24.94 25.14 24.74 24.05 22.54 22.34 21.92 21.72 22.31 22.40 22.07 23.32 24.79 18.51 15.72 15.92 16.79 19.04 18.81 14.32 17.26 21.62 22.92
22.78 23.56 24.08 25.49 24.59 22.98 22.79 22.63 21.68 21.23 19.71 19.15 18.17 17.78 15.35 15.30 18.12 25.65 14.43 14.06 13.80 14.48 16.62 16.38 15.19 19.50 21.82

GFSFLT2_sfc_wetblb_294.txt.gz
Wetbulb
47.81 48.59 47.74 48.40 49.03 49.78 50.34 49.81 50.01 47.90 48.11 49.76 50.68 51.46 52.13 52.26 51.87 50.83 50.17 49.32 48.36 47.72 47.86 47.80 47.91 49.20 49.32
46.22 45.65 45.54 46.79 47.72 47.88 47.78 48.82 49.06 47.72 46.73 47.64 48.86 49.97 50.97 51.40 50.93 50.01 48.81 47.80 47.13 46.60 46.28 46.21 46.32 47.76 48.39
44.64 45.47 44.76 45.43 45.24 45.60 46.35 47.18 47.77 46.28 45.77 46.29 47.28 48.78 50.43 50.96 49.57 47.92 46.69 45.66 44.72 44.06 43.82 43.96 44.55 45.46 46.66
43.69 43.21 43.52 44.05 44.46 43.10 42.58 45.98 45.75 45.38 44.66 44.55 45.61 47.74 49.79 50.09 47.72 45.94 44.85 43.72 42.89 42.14 41.76 41.89 42.43 43.32 43.98
42.39 43.11 42.16 41.18 41.40 42.85 41.93 42.36 41.70 43.04 44.00 44.95 44.43 47.26 47.19 47.24 44.58 43.67 43.00 42.09 41.36 40.91 40.67 40.40 40.74 41.90 43.42
42.45 41.74 42.04 41.85 42.58 41.84 40.91 38.44 37.09 42.99 42.37 40.53 39.69 41.85 42.19 41.99 43.02 42.52 41.80 40.88 39.97 39.51 39.40 39.17 39.67 41.15 41.58
42.61 42.50 40.95 41.58 41.70 40.42 40.06 40.13 40.39 40.43 39.98 34.55 36.32 37.43 40.99 42.22 42.57 41.64 40.52 39.31 38.79 38.32 38.34 38.60 39.00 40.20 40.11
43.81 41.81 41.67 42.20 42.21 41.69 41.39 37.11 36.80 36.57 37.39 32.54 33.47 34.66 39.07 40.23 41.34 40.48 38.81 37.95 37.57 37.72 37.84 38.17 38.50 39.14 39.10
42.40 42.56 42.84 42.96 42.53 39.83 35.44 34.69 32.50 34.29 35.14 33.30 33.10 32.06 33.58 36.05 38.37 39.04 37.63 37.20 36.98 37.37 37.48 37.63 37.99 38.33 37.70
35.00 36.62 38.21 38.16 38.85 41.33 39.07 35.12 32.92 32.33 34.34 32.45 32.10 32.56 29.96 32.36 34.66 36.31 35.81 36.54 35.93 35.99 37.30 36.76 36.34 35.24 35.05
32.68 33.28 34.57 34.86 35.31 34.47 34.33 35.41 33.10 33.43 35.26 34.33 32.84 32.41 32.86 28.85 32.23 33.37 33.59 33.08 33.08 34.61 35.97 35.56 35.41 35.12 33.85
33.62 33.42 32.60 31.71 31.44 31.85 31.92 33.25 33.29 34.37 36.04 34.88 32.76 34.57 31.86 29.26 28.04 29.70 29.60 29.49 31.75 31.23 32.70 34.70 34.70 34.03 33.81
31.56 29.63 29.85 30.39 30.40 29.94 29.79 29.40 28.83 29.54 32.69 32.38 34.10 34.98 34.13 31.82 27.44 27.83 26.58 27.15 30.11 29.95 30.67 30.81 30.84 31.49 29.75
30.02 29.51 30.12 30.32 29.69 29.71 28.44 28.42 27.45 26.82 29.22 32.16 32.73 33.54 32.26 31.11 30.10 27.64 27.54 25.69 27.29 28.59 28.89 28.91 29.67 30.42 29.66
29.51 28.84 28.45 28.73 28.25 29.48 29.63 29.75 29.45 27.65 27.17 28.38 30.04 30.66 30.59 31.56 28.96 27.79 26.27 25.23 26.56 26.39 27.81 26.64 27.54 28.09 28.35
29.87 29.04 28.04 28.01 27.92 28.58 29.62 29.49 27.49 26.75 26.69 27.89 28.43 28.21 28.28 27.26 29.55 25.79 25.67 24.82 25.76 26.25 27.38 26.35 25.66 27.60 28.37
29.35 28.91 28.74 28.59 28.15 27.89 27.96 27.56 26.06 25.75 25.59 26.64 28.61 29.30 26.33 21.95 24.08 27.51 24.69 24.75 24.96 25.21 26.39 27.07 26.86 26.61 27.21

GFSFLT2_sfc_wetblb_297.txt.gz
Wetbulb
47.61 49.08 48.46 48.27 48.16 49.70 49.73 49.45 49.45 49.90 49.87 49.87 50.34 50.70 51.06 52.23 52.41 52.21 51.22 50.86 49.56 48.63 48.11 47.64 47.93 48.97 49.19
45.71 46.74 47.37 47.65 48.34 47.60 47.95 49.01 48.69 49.51 49.02 48.64 48.37 49.06 49.88 50.62 51.43 51.38 50.81 49.60 48.31 47.61 47.07 46.65 46.85 48.29 48.67
43.62 45.93 46.86 46.81 45.96 46.73 46.98 46.64 47.19 47.99 48.22 47.40 47.21 47.44 48.69 49.88 50.80 50.43 48.87 47.35 46.25 45.47 44.86 45.08 45.47 46.35 47.11
43.40 42.99 44.97 45.62 45.04 44.16 43.55 45.62 45.11 46.06 46.30 45.43 45.30 45.88 47.06 49.11 49.86 47.47 46.32 45.39 44.36 43.57 43.05 43.11 43.66 44.39 44.92
40.80 41.73 42.27 42.87 41.77 43.50 43.00 43.15 43.03 43.22 43.53 43.90 43.58 45.03 46.73 47.21 46.12 45.18 44.69 43.85 42.74 42.03 41.68 41.79 42.45 43.78 43.77
39.37 38.49 40.82 42.50 43.77 42.84 42.08 39.79 36.05 41.50 41.10 38.77 40.21 42.62 42.91 43.22 44.77 44.10 42.99 42.15 41.43 40.88 40.36 40.52 41.94 42.53 41.82
40.40 40.62 41.24 42.58 43.62 42.10 39.75 38.51 37.07 38.35 38.16 33.38 36.50 37.56 40.98 42.80 43.87 42.67 41.71 40.72 39.81 39.54 39.47 39.81 41.20 40.90 40.37
42.83 42.87 43.63 44.05 42.65 41.06 39.71 34.68 35.41 35.97 38.31 31.95 33.78 34.96 39.84 41.16 42.32 41.39 40.53 39.40 38.67 38.97 39.11 39.50 40.07 39.77 39.62
42.49 42.32 42.59 42.95 42.15 39.61 34.94 34.28 31.83 32.19 34.24 33.09 32.16 31.38 32.28 35.79 38.39 39.75 39.00 38.00 38.40 38.66 38.79 39.19 39.35 39.07 37.27
34.87 35.94 37.44 38.23 39.48 39.59 37.65 34.35 32.12 31.36 33.39 31.97 31.83 32.24 29.25 31.89 33.56 35.48 36.33 37.21 37.73 38.22 38.38 38.35 37.34 32.57 32.43
32.59 32.67 33.01 33.03 33.30 33.37 33.70 35.16 33.10 32.46 34.60 33.85 32.13 31.62 31.08 29.04 31.76 32.15 33.11 32.55 32.23 34.92 36.94 36.73 36.39 35.58 32.13
32.66 32.76 32.03 31.39 31.28 31.48 31.53 32.09 32.52 33.75 35.71 34.56 32.48 32.40 29.68 28.42 27.19 29.66 29.48 30.68 30.43 30.15 31.26 34.96 36.02 36.11 35.27
31.12 29.39 29.93 30.36 30.59 30.23 30.16 30.09 29.64 30.32 32.77 32.88 34.13 33.31 32.61 30.18 26.82 26.88 26.25 28.11 29.32 28.86 28.94 29.38 29.02 28.97 28.74
29.72 29.37 30.11 30.50 29.70 29.97 28.93 28.91 28.09 27.50 29.91 32.44 32.96 33.38 31.68 30.07 28.95 27.19 26.83 25.05 27.53 27.56 27.30 27.91 28.33 28.63 27.59
29.45 28.72 28.82 29.27 28.75 29.74 29.50 29.29 28.38 27.23 26.55 28.43 29.92 30.08 30.47 31.07 27.94 27.10 25.46 25.52 26.94 26.35 26.61 25.58 25.94 26.10 26.26
29.71 29.16 28.20 28.27 28.13 29.05 29.91 29.30 26.83 26.07 25.84 27.29 27.82 27.53 27.45 26.46 30.46 25.72 25.45 24.58 24.80 25.51 26.72 24.27 23.62 24.78 25.91
29.44 28.77 28.50 28.49 27.51 28.05 28.09 27.35 25.35 25.15 25.35 27.21 29.54 28.59 25.02 19.91 24.24 29.78 24.40 24.28 23.87 24.03 24.89 24.89 22.99 23.84 24.21